Starlink 3828

operational
NORAD ID: 52469 Int'l Des: 2022-049 Owner: SPXS Country: US Constellation: starlink
LEOCIRCULAR

Starlink 3828について

説明を読み込み中...

リアルタイム位置

3D地球を読み込み中...

次回通過

高度履歴

Altitude vs Time

uPlot chart will show altitude changes over time

軌道要素

1 52469U 22049U 25351.58620455 .00000130 00000-0 26285-4 0 9995
2 52469 53.2211 67.7033 0001485 99.8777 260.2383 15.08833448199853
Epoch: Dec 17, 2025 • Age: 22 hours

現在のステータス

高度 551.5 km
速度 7.59 km/s
衛星直下点 -34.27°S, 123.84°E
打ち上げ日 May 6, 2022
運用期間 3.6 years
タイプ internet

技術仕様

分類 Payload
質量 297.00 kg
乾燥質量 220.00 kg
総質量 297.00 kg
長さ 0.20 m
直径 2.80 m
スパン 9.00 m
形状 Box + pan
製造者 SPXS
バスタイプ Starlink
フェーズステータス In Orbit
所有者/国 SPXS/US

大規模コンステレーション

Loading constellations...